GSAT0219 (GALILEO 23)

Last updated on Sun Dec 14 2025 00:02:36 GMT+0000 (Coordinated Universal Time)

1 43566U 18060C 25346.97124941 -.00000086 00000+0 00000+0 0 9999 2 43566 57.2304 346.8158 0005812 287.2893 72.6656 1.70475808 46010
UTC large
Height (km)
Speed (km/s)
/
Latitude / Longitude
Inclination (degrees)
Orbital Period (minutes)
Azimuth
Elevation
Range (km)
Doppler Factor

Next 0 passes for location: London (51.5072 / 0.1276)

Sorry there are no passes over London.